Location: Pettit
(39.0209°N, 79.7181°W)
Time: 20:24:24
(UTC+00:00)

ACS3 Solar Sail - Pass Details

Date: 23 April 2026
Orbit: 894 x 947 km, 97.2° (Epoch: 12 May)

Event Time Altitude Azimuth Distance (km) Brightness Sun altitude
Rises 08:19:46 0° 348° (NNW) 3,555 5.1 -23.1°
Reaches altitude 10° 08:24:49 10° 310° (NW) 2,622 3.9 -22.4°
Maximum altitude 08:25:41 10° 301° (WNW) 2,599 3.8 -22.3°
Enters shadow 08:26:04 10° 297° (WNW) 2,605 3.8 -22.2°
